When you browse on this site, cookies collect data to enhance your experience and personalize the content and advertising you see.
Visit our Privacy Policy to learn more. By continuing to use the site, you agree to this use of cookies and data.
  • In Romania
  • List of Countries
  • For 7 days
  • Water Temperature
  • Satellite Maps
  • Weather Map
  • Weather Widgets
  • user-avatar
    Login

    Hourly Weather Knighton

    Today, 22 January, Tuesday

    Time Temperature Precipitation Wind Pressure Humidity
    00:00 +1°C° 0 mm 4 mps 724 mmHg 87%
    01:00 0°C° 0 mm 4 mps 723 mmHg 87%
    02:00 -1°C° 0 mm 5 mps 723 mmHg 86%
    03:00 -2°C° 0 mm 5 mps 723 mmHg 85%
    04:00 -2°C° 0 mm 5 mps 722 mmHg 85%
    05:00 -2°C° 0 mm 5 mps 722 mmHg 85%
    06:00 -2°C° 0 mm 3 mps 722 mmHg 90%
    07:00 -2°C° 0 mm 3 mps 722 mmHg 89%
    08:00 -2°C° 0 mm 3 mps 722 mmHg 88%
    09:00 -2°C° 0 mm 4 mps 721 mmHg 87%
    10:00 -1°C° 0.1 mm 4 mps 721 mmHg 83%
    11:00 0°C° 0.1 mm 5 mps 721 mmHg 80%
    12:00 +1°C° 0.1 mm 5 mps 721 mmHg 76%
    13:00 +1°C° 0.3 mm 5 mps 720 mmHg 77%
    14:00 0°C° 0.3 mm 5 mps 720 mmHg 78%
    15:00 0°C° 0.3 mm 5 mps 719 mmHg 79%
    16:00 -1°C° 0.1 mm 4 mps 719 mmHg 82%
    17:00 -2°C° 0.1 mm 4 mps 719 mmHg 85%
    18:00 -2°C° 0.1 mm 3 mps 718 mmHg 88%
    19:00 -2°C° 0 mm 3 mps 719 mmHg 88%
    20:00 -2°C° 0 mm 3 mps 719 mmHg 88%
    21:00 -4°C° 0 mm 3 mps 719 mmHg 88%
    22:00 -4°C° 0 mm 3 mps 719 mmHg 88%
    23:00 -4°C° 0 mm 3 mps 719 mmHg 88%

    Tomorrow, 23 January, Wednesday

    Time Temperature Precipitation Wind Pressure Humidity
    00:00 -4°C° 0 mm 3 mps 719 mmHg 88%
    01:00 -4°C° 0 mm 3 mps 719 mmHg 87%
    02:00 -4°C° 0 mm 4 mps 719 mmHg 87%
    03:00 -4°C° 0 mm 4 mps 720 mmHg 87%
    04:00 -4°C° 0 mm 4 mps 720 mmHg 87%
    05:00 -4°C° 0 mm 4 mps 721 mmHg 88%
    06:00 -4°C° 0 mm 4 mps 721 mmHg 88%
    07:00 -4°C° 0 mm 3 mps 722 mmHg 88%
    08:00 -4°C° 0 mm 3 mps 722 mmHg 88%
    09:00 -4°C° 0 mm 3 mps 723 mmHg 89%
    10:00 -1°C° 0 mm 3 mps 723 mmHg 84%
    11:00 -1°C° 0 mm 4 mps 724 mmHg 79%
    12:00 0°C° 0 mm 4 mps 725 mmHg 74%
    13:00 0°C° 0 mm 4 mps 725 mmHg 76%
    14:00 +1°C° 0 mm 3 mps 725 mmHg 77%
    15:00 +3°C° 0 mm 2 mps 725 mmHg 78%
    16:00 +1°C° 0 mm 2 mps 725 mmHg 82%
    17:00 -1°C° 0 mm 2 mps 726 mmHg 85%
    18:00 -2°C° 0 mm 2 mps 726 mmHg 89%
    19:00 -2°C° 0 mm 2 mps 726 mmHg 89%
    20:00 0°C° 0 mm 1 mps 727 mmHg 89%
    21:00 -1°C° 0 mm 1 mps 727 mmHg 89%
    22:00 0°C° 0 mm 1 mps 727 mmHg 89%
    23:00 0°C° 0 mm 1 mps 727 mmHg 89%

    Day after tomorrow, 24 January, Thursday

    Time Temperature Precipitation Wind Pressure Humidity
    00:00 0°C° 0 mm 1 mps 727 mmHg 89%
    01:00 -2°C° 0 mm 2 mps 727 mmHg 89%
    02:00 -2°C° 0 mm 2 mps 727 mmHg 90%
    03:00 -2°C° 0 mm 2 mps 727 mmHg 90%
    04:00 +1°C° 0 mm 1 mps 727 mmHg 91%
    05:00 +1°C° 0 mm 1 mps 727 mmHg 91%
    06:00 +2°C° 0 mm 1 mps 728 mmHg 92%
    07:00 +2°C° 0 mm 1 mps 728 mmHg 92%
    08:00 +2°C° 0 mm 1 mps 728 mmHg 93%
    09:00 +3°C° 0 mm 1 mps 729 mmHg 93%
    10:00 +4°C° 0 mm 1 mps 729 mmHg 93%
    11:00 +4°C° 0 mm 1 mps 729 mmHg 93%
    12:00 +4°C° 0 mm 2 mps 729 mmHg 92%
    13:00 +5°C° 0 mm 2 mps 729 mmHg 92%
    14:00 +5°C° 0 mm 2 mps 729 mmHg 92%
    15:00 +4°C° 0 mm 3 mps 729 mmHg 92%
    16:00 +4°C° 0 mm 3 mps 729 mmHg 94%
    17:00 +4°C° 0 mm 3 mps 729 mmHg 95%
    18:00 +3°C° 0 mm 3 mps 729 mmHg 96%
    19:00 +3°C° 0.3 mm 3 mps 730 mmHg 96%
    20:00 +4°C° 0.3 mm 3 mps 730 mmHg 96%
    21:00 +4°C° 0.3 mm 3 mps 730 mmHg 96%
    22:00 +4°C° 0.1 mm 3 mps 730 mmHg 97%
    23:00 +5°C° 0.1 mm 2 mps 730 mmHg 97%

    25 January, Friday

    Time Temperature Precipitation Wind Pressure Humidity
    00:00 +5°C° 0.1 mm 2 mps 730 mmHg 97%
    01:00 +5°C° 0.1 mm 2 mps 731 mmHg 97%
    02:00 +6°C° 0.1 mm 1 mps 731 mmHg 97%
    03:00 +5°C° 0.1 mm 1 mps 731 mmHg 98%
    04:00 +5°C° 0.1 mm 1 mps 731 mmHg 98%
    05:00 +5°C° 0.1 mm 1 mps 731 mmHg 98%
    06:00 +4°C° 0.1 mm 0 mps 731 mmHg 98%
    07:00 +5°C° 0.1 mm 1 mps 732 mmHg 97%
    08:00 +5°C° 0.1 mm 1 mps 732 mmHg 97%
    09:00 +5°C° 0.1 mm 1 mps 732 mmHg 97%
    10:00 +5°C° 0.1 mm 1 mps 732 mmHg 97%
    11:00 +5°C° 0.1 mm 1 mps 732 mmHg 97%
    12:00 +4°C° 0.1 mm 2 mps 733 mmHg 96%
    13:00 +5°C° 0.1 mm 2 mps 732 mmHg 96%
    14:00 +5°C° 0.1 mm 2 mps 732 mmHg 96%
    15:00 +5°C° 0.1 mm 2 mps 732 mmHg 95%
    16:00 +5°C° 0 mm 2 mps 732 mmHg 95%
    17:00 +4°C° 0 mm 2 mps 732 mmHg 96%
    18:00 +3°C° 0 mm 2 mps 731 mmHg 96%
    19:00 +3°C° 0 mm 2 mps 731 mmHg 96%
    20:00 +2°C° 0 mm 3 mps 730 mmHg 95%
    21:00 +2°C° 0 mm 3 mps 730 mmHg 95%
    22:00 +3°C° 1 mm 4 mps 729 mmHg 95%
    23:00 +2°C° 1 mm 5 mps 728 mmHg 95%

    26 January, Saturday

    Time Temperature Precipitation Wind Pressure Humidity
    00:00 +3°C° 1 mm 6 mps 728 mmHg 95%
    01:00 +5°C° 1.3 mm 5 mps 727 mmHg 96%
    02:00 +5°C° 1.3 mm 4 mps 727 mmHg 96%
    03:00 +5°C° 1.3 mm 4 mps 726 mmHg 97%
    04:00 +5°C° 0.7 mm 4 mps 726 mmHg 95%
    05:00 +4°C° 0.7 mm 4 mps 726 mmHg 93%
    06:00 +3°C° 0.7 mm 4 mps 726 mmHg 91%
    07:00 +1°C° 0 mm 4 mps 727 mmHg 90%
    08:00 0°C° 0 mm 4 mps 727 mmHg 90%
    09:00 -1°C° 0 mm 4 mps 728 mmHg 89%
    10:00 0°C° 0 mm 4 mps 728 mmHg 85%
    11:00 +1°C° 0 mm 5 mps 729 mmHg 81%
    12:00 +2°C° 0 mm 5 mps 729 mmHg 77%
    13:00 +2°C° 0.1 mm 5 mps 729 mmHg 77%
    14:00 +2°C° 0.1 mm 5 mps 729 mmHg 76%
    15:00 +2°C° 0.1 mm 5 mps 729 mmHg 76%
    16:00 +1°C° 0 mm 4 mps 729 mmHg 79%
    17:00 0°C° 0 mm 4 mps 729 mmHg 82%
    18:00 -1°C° 0 mm 4 mps 729 mmHg 85%
    19:00 -1°C° 0 mm 4 mps 729 mmHg 87%
    20:00 0°C° 0 mm 3 mps 729 mmHg 89%
    21:00 -1°C° 0 mm 3 mps 729 mmHg 90%
    22:00 -1°C° 0 mm 4 mps 728 mmHg 90%
    23:00 0°C° 0 mm 4 mps 727 mmHg 89%

    27 January, Sunday

    Time Temperature Precipitation Wind Pressure Humidity
    00:00 0°C° 0 mm 4 mps 727 mmHg 89%
    01:00 +1°C° 0.3 mm 4 mps 726 mmHg 90%
    02:00 +1°C° 0.3 mm 4 mps 725 mmHg 92%
    03:00 +3°C° 0.3 mm 4 mps 725 mmHg 93%
    04:00 +3°C° 0.1 mm 4 mps 724 mmHg 93%
    05:00 +2°C° 0.1 mm 5 mps 724 mmHg 92%
    06:00 +2°C° 0.1 mm 5 mps 724 mmHg 91%
    07:00 +1°C° 0 mm 5 mps 724 mmHg 91%
    08:00 0°C° 0 mm 4 mps 724 mmHg 90%
    09:00 -1°C° 0 mm 4 mps 724 mmHg 90%
    10:00 0°C° 0 mm 4 mps 725 mmHg 85%
    11:00 +1°C° 0 mm 5 mps 725 mmHg 80%
    12:00 +3°C° 0 mm 6 mps 725 mmHg 75%
    13:00 +2°C° 0.1 mm 6 mps 726 mmHg 75%
    14:00 +2°C° 0.1 mm 6 mps 726 mmHg 76%
    15:00 +2°C° 0.1 mm 5 mps 726 mmHg 76%
    16:00 +1°C° 0 mm 5 mps 726 mmHg 79%
    17:00 -1°C° 0 mm 4 mps 727 mmHg 83%
    18:00 -2°C° 0 mm 4 mps 727 mmHg 87%
    19:00 -2°C° 0 mm 4 mps 728 mmHg 87%
    20:00 -2°C° 0 mm 3 mps 728 mmHg 87%
    21:00 -2°C° 0 mm 3 mps 729 mmHg 88%
    22:00 -2°C° 0 mm 3 mps 729 mmHg 87%
    23:00 -2°C° 0 mm 3 mps 729 mmHg 87%
    Show more